Home   Weather   Serekunda   Past weeks

Flag for Gambia Past Weather in Serekunda, Gambia — Yesterday and Last 2 Weeks

Now
84 °F

Partly cloudy.


Feels Like: 96 °F
Forecast: N/A
Wind: 3 mph from West

Location: Banjul / Yundum

Current Time: Sep 27, 2016 at 8:51:45 PM

Latest Report: Sep 27, 2016 at 8:00 PM


Visibility: N/A

Pressure: 29.80 "Hg

Humidity: 84%

Dew Point: 79 °F

Location of SerekundaLocation

Past Weather in Serekunda — Graph

°F

Serekunda Temperature Yesterday

Maximum temperature yesterday: 86 °F (at 1:00 PM)
Minimum temperature yesterday: 72 °F (at 12:00 AM)
Average temperature yesterday: 79 °F

High & Low Weather Summary for the Past Weeks

 TemperatureHumidityPressure
High102 °F (Sep 22, 6:00 PM)100% (Sep 13, 3:00 AM)30.09 "Hg (Sep 13, 3:00 AM)
Low68 °F (Sep 18, 5:00 PM)45% (Sep 22, 6:00 PM)29.74 "Hg (Sep 16, 4:00 PM)
Average81 °F85%29.88 "Hg
* Reported Sep 12 8:00 PM — Sep 27 8:00 PM, Serekunda, Weather by CustomWeather, © 2016

Note: Actual official high and low records may vary slightly from our data, if they occured in-between our weather recording intervals... More about our weather records

Advertising

Serekunda Weather History for the Previous 24 Hours

Scroll right to see more
 ConditionsComfort  
Time TempWeatherWind HumidityBarometerVisibility
8:00 PM
Tue, Sep 27
84 °FPartly cloudy.3 mph84%29.80 "HgN/A
7:00 PM86 °FPassing clouds.6 mph75%29.80 "HgN/A
6:00 PM88 °FScattered clouds.6 mph75%29.77 "HgN/A
5:00 PM90 °FScattered clouds.6 mph67%29.80 "HgN/A
4:00 PM91 °FScattered clouds.9 mph63%29.80 "HgN/A
3:00 PM91 °FScattered clouds.13 mph59%29.80 "HgN/A
2:30 PM90 °FScattered clouds.7 mph63%29.83 "HgN/A
2:00 PM90 °FScattered clouds.7 mph63%29.83 "HgN/A
1:00 PM88 °FScattered clouds.6 mph70%29.83 "HgN/A
12:00 PM90 °FScattered clouds.3 mph71%29.86 "HgN/A
11:00 AM88 °FWarm.N/A75%29.89 "HgN/A
10:00 AM84 °FScattered clouds.2 mph79%29.89 "HgN/A
9:00 AM82 °FScattered clouds.2 mph89%29.89 "HgN/A
8:00 AM79 °FScattered clouds.2 mph89%29.86 "HgN/A
7:00 AM77 °FScattered clouds.1 mph94%29.83 "HgN/A
6:00 AM79 °FPassing clouds.3 mph89%N/AN/A
5:00 AM79 °FPassing clouds.2 mph89%29.80 "HgN/A
4:00 AM77 °FPassing clouds.2 mph94%29.80 "HgN/A
3:00 AM79 °FPassing clouds.5 mph89%29.80 "HgN/A
2:00 AM79 °FThunderstorms. Passing clouds.3 mph94%29.83 "HgN/A
1:00 AM79 °FThunderstorms. Passing clouds.16 mph94%29.86 "HgN/A
12:00 AM77 °FThunderstorms. Passing clouds.2 mph94%29.86 "HgN/A
11:00 PM
Mon, Sep 26
77 °FPassing clouds.2 mph94%29.89 "HgN/A
10:00 PM79 °FThunderstorms. Passing clouds.2 mph89%29.86 "HgN/A
9:28 PM79 °FThunderstorms. Passing clouds.2 mph89%29.86 "HgN/A
9:00 PM79 °FPassing clouds.2 mph89%29.86 "HgN/A
8:00 PM81 °FPassing clouds.6 mph84%29.83 "HgN/A
Weather by CustomWeather, © 2016

See weather overviewHow to use our weather pages